Total_Precipitation_Accumulation
0.17 0.20 0.22 0.24 0.24 0.23 0.26 0.33 0.39 0.48 0.58 0.78 1.08 1.47 1.62 1.68 1.66 1.66 1.50 1.21 0.93 0.87 0.94 0.91 0.82 0.73 0.71 0.63 0.48 0.47 0.38 0.25 0.13 0.16 0.16 0.08 0.04 0.03 0.02 0.01 0.02 0.02 0.02
0.12 0.11 0.13 0.15 0.14 0.14 0.16 0.25 0.31 0.41 0.54 0.79 1.09 1.43 1.75 1.78 1.73 1.69 1.61 1.44 1.29 1.22 1.21 1.30 1.29 1.17 1.17 1.09 0.90 0.91 0.84 0.58 0.36 0.43 0.51 0.32 0.17 0.07 0.04 0.02 0.02 0.02 0.02
0.11 0.09 0.08 0.09 0.10 0.10 0.11 0.16 0.22 0.37 0.64 0.95 1.27 1.45 1.73 1.83 1.84 1.74 1.72 1.66 1.56 1.43 1.37 1.42 1.46 1.38 1.35 1.36 1.34 1.24 1.19 0.98 0.66 0.51 0.58 0.53 0.43 0.24 0.08 0.04 0.03 0.03 0.03
0.14 0.11 0.08 0.06 0.06 0.07 0.08 0.11 0.17 0.36 0.69 1.01 1.26 1.49 1.83 1.91 1.80 1.80 1.80 1.76 1.69 1.59 1.57 1.52 1.57 1.51 1.41 1.44 1.46 1.33 1.33 1.29 1.01 0.77 0.59 0.48 0.44 0.34 0.21 0.09 0.06 0.07 0.05
0.14 0.11 0.09 0.07 0.07 0.07 0.09 0.15 0.27 0.45 0.69 0.90 1.14 1.47 1.71 1.81 1.86 1.76 1.76 1.76 1.76 1.71 1.65 1.60 1.66 1.63 1.54 1.46 1.56 1.52 1.52 1.41 1.31 1.13 0.96 0.82 0.67 0.41 0.35 0.29 0.15 0.08 0.06
0.15 0.14 0.13 0.14 0.12 0.14 0.18 0.26 0.39 0.54 0.72 0.89 1.07 1.23 1.45 1.60 1.71 1.71 1.67 1.65 1.65 1.71 1.58 1.44 1.48 1.46 1.43 1.41 1.51 1.57 1.62 1.54 1.52 1.34 1.06 0.94 0.81 0.64 0.57 0.46 0.32 0.19 0.08
0.24 0.28 0.28 0.31 0.35 0.38 0.40 0.46 0.54 0.64 0.74 0.80 0.86 0.93 1.06 1.19 1.24 1.32 1.38 1.49 1.49 1.55 1.55 1.41 1.37 1.30 1.22 1.20 1.26 1.31 1.32 1.39 1.47 1.30 1.07 0.99 0.84 0.76 0.72 0.61 0.48 0.37 0.17
0.41 0.50 0.57 0.64 0.69 0.67 0.66 0.70 0.75 0.71 0.67 0.66 0.68 0.72 0.75 0.83 0.87 0.89 0.91 1.04 1.21 1.24 1.29 1.26 1.17 1.17 1.20 1.19 1.18 1.17 1.14 1.07 1.09 1.10 1.08 1.06 0.91 0.81 0.73 0.71 0.73 0.62 0.47
0.69 0.78 0.86 0.87 0.84 0.78 0.74 0.75 0.75 0.68 0.63 0.62 0.58 0.55 0.53 0.54 0.58 0.59 0.62 0.65 0.74 0.77 0.84 0.94 0.96 0.97 1.04 1.08 1.14 1.16 1.08 0.95 0.92 0.98 1.01 0.94 0.89 0.84 0.74 0.69 0.67 0.70 0.64
1.04 1.17 1.23 1.12 1.01 0.97 0.98 0.86 0.75 0.66 0.62 0.58 0.52 0.46 0.42 0.40 0.42 0.43 0.46 0.44 0.45 0.46 0.51 0.59 0.65 0.70 0.82 0.91 0.97 1.00 1.02 0.97 0.91 0.95 1.00 1.00 0.99 0.98 0.89 0.77 0.72 0.65 0.65
1.42 1.51 1.51 1.39 1.17 1.00 0.98 0.92 0.77 0.64 0.52 0.50 0.47 0.44 0.38 0.35 0.34 0.33 0.32 0.27 0.29 0.34 0.37 0.44 0.48 0.49 0.54 0.67 0.84 0.91 0.89 0.87 0.84 0.83 0.90 1.01 1.05 1.10 1.05 1.00 0.88 0.76 0.73
1.29 1.33 1.28 1.27 1.14 1.01 0.91 0.88 0.78 0.61 0.52 0.52 0.51 0.47 0.37 0.33 0.33 0.31 0.28 0.24 0.24 0.26 0.30 0.37 0.42 0.46 0.47 0.49 0.58 0.68 0.70 0.69 0.71 0.71 0.73 0.83 0.92 1.01 1.09 1.09 1.04 1.00 0.88
0.97 1.06 1.12 1.03 0.98 0.88 0.80 0.87 0.90 0.78 0.74 0.71 0.71 0.63 0.47 0.41 0.40 0.37 0.34 0.30 0.28 0.29 0.31 0.36 0.40 0.44 0.44 0.43 0.42 0.47 0.53 0.54 0.53 0.54 0.55 0.58 0.67 0.79 0.93 1.01 1.03 1.06 1.06
0.78 0.84 0.91 0.87 0.87 0.80 0.77 0.83 0.87 0.91 0.98 1.02 0.94 0.77 0.63 0.56 0.49 0.43 0.37 0.34 0.36 0.35 0.37 0.46 0.48 0.46 0.41 0.42 0.42 0.44 0.44 0.41 0.39 0.38 0.36 0.37 0.41 0.49 0.63 0.78 0.92 1.04 1.09
0.56 0.55 0.54 0.56 0.61 0.61 0.59 0.63 0.67 0.79 0.96 1.02 0.89 0.75 0.62 0.50 0.44 0.43 0.39 0.39 0.41 0.40 0.42 0.47 0.50 0.53 0.50 0.48 0.47 0.43 0.39 0.36 0.35 0.31 0.23 0.21 0.25 0.29 0.34 0.41 0.60 0.81 0.95
0.32 0.31 0.28 0.28 0.32 0.32 0.34 0.38 0.45 0.60 0.83 0.91 0.78 0.61 0.51 0.46 0.42 0.41 0.37 0.35 0.34 0.34 0.36 0.40 0.48 0.52 0.47 0.57 0.52 0.40 0.31 0.31 0.30 0.25 0.21 0.21 0.24 0.22 0.19 0.20 0.29 0.46 0.63
0.23 0.23 0.22 0.20 0.20 0.20 0.22 0.30 0.36 0.49 0.59 0.61 0.56 0.45 0.38 0.36 0.35 0.34 0.33 0.34 0.35 0.34 0.35 0.35 0.39 0.44 0.56 0.50 0.34 0.31 0.28 0.30 0.30 0.29 0.28 0.26 0.24 0.27 0.21 0.20 0.20 0.24 0.27
0.21 0.21 0.21 0.20 0.21 0.22 0.23 0.32 0.37 0.38 0.44 0.51 0.50 0.43 0.37 0.34 0.33 0.31 0.33 0.40 0.40 0.37 0.37 0.38 0.36 0.40 0.49 0.40 0.26 0.26 0.25 0.33 0.38 0.36 0.36 0.37 0.32 0.30 0.30 0.30 0.34 0.33 0.29
0.13 0.13 0.13 0.12 0.12 0.12 0.11 0.13 0.17 0.22 0.27 0.30 0.34 0.33 0.28 0.29 0.32 0.32 0.37 0.40 0.40 0.43 0.42 0.42 0.40 0.43 0.44 0.35 0.25 0.26 0.33 0.44 0.45 0.39 0.42 0.41 0.35 0.41 0.37 0.40 0.52 0.51 0.45
0.03 0.03 0.03 0.03 0.03 0.02 0.03 0.04 0.05 0.06 0.08 0.10 0.14 0.18 0.19 0.22 0.28 0.36 0.42 0.39 0.37 0.41 0.41 0.38 0.34 0.36 0.36 0.38 0.25 0.31 0.41 0.47 0.49 0.47 0.49 0.57 0.48 0.48 0.37 0.32 0.45 0.52 0.48
0.00 0.00 0.00 0.01 0.01 0.01 0.01 0.02 0.02 0.02 0.02 0.02 0.04 0.07 0.11 0.16 0.25 0.32 0.31 0.30 0.33 0.35 0.35 0.37 0.35 0.34 0.39 0.46 0.44 0.47 0.49 0.54 0.58 0.61 0.66 0.62 0.62 0.43 0.32 0.27 0.30 0.37 0.39
0.00 0.00 0.00 0.00 0.00 0.00 0.00 0.00 0.00 0.00 0.00 0.00 0.01 0.02 0.04 0.07 0.12 0.19 0.22 0.24 0.28 0.29 0.28 0.29 0.29 0.32 0.40 0.46 0.48 0.49 0.52 0.57 0.56 0.61 0.59 0.52 0.52 0.36 0.26 0.19 0.22 0.22 0.22
0.00 0.00 0.00 0.00 0.00 0.00 0.00 0.00 0.00 0.00 0.00 0.00 0.00 0.00 0.01 0.02 0.05 0.12 0.16 0.20 0.26 0.28 0.26 0.24 0.26 0.28 0.32 0.38 0.40 0.40 0.39 0.40 0.41 0.39 0.42 0.40 0.32 0.25 0.19 0.16 0.18 0.19 0.20
0.00 0.00 0.00 0.00 0.00 0.00 0.00 0.00 0.00 0.00 0.00 0.00 0.00 0.00 0.01 0.01 0.03 0.05 0.12 0.21 0.24 0.22 0.23 0.24 0.26 0.29 0.32 0.32 0.31 0.33 0.34 0.31 0.32 0.31 0.29 0.25 0.21 0.20 0.20 0.19 0.17 0.18 0.23
0.00 0.00 0.00 0.00 0.00 0.00 0.00 0.00 0.00 0.00 0.00 0.00 0.00 0.00 0.00 0.01 0.02 0.02 0.06 0.13 0.15 0.14 0.18 0.23 0.27 0.31 0.33 0.29 0.26 0.26 0.31 0.34 0.38 0.40 0.32 0.26 0.24 0.22 0.24 0.26 0.23 0.23 0.27
0.00 0.00 0.00 0.00 0.00 0.00 0.00 0.00 0.00 0.00 0.00 0.00 0.00 0.00 0.00 0.01 0.01 0.02 0.03 0.05 0.05 0.07 0.08 0.09 0.13 0.13 0.13 0.13 0.13 0.16 0.20 0.26 0.30 0.41 0.44 0.45 0.48 0.47 0.44 0.40 0.32 0.27 0.26